Weather History for KAFN - December, 2012

Change the Weather History Date:

Sunday, December 9, 2012

  Actual Average Record
Temperature  
Mean Temperature 36 °F -  
Max Temperature 43 °F 35 °F 51 °F (2008)
Min Temperature 30 °F 20 °F -2 °F (2003)
Degree Days  
Heating Degree Days 28    
Moisture  
Dew Point 32 °F    
Average Humidity 86    
Maximum Humidity 100    
Minimum Humidity 43    
Precipitation  
Precipitation 0.02 in - - ()
Sea Level Pressure  
Sea Level Pressure 30.13 in    
Wind  
Wind Speed 2 mph (South)    
Max Wind Speed 6 mph    
Max Gust Speed -    
Visibility 6 miles    
Events Rain    
Averages and records for this station are not official NWS values.
T = Trace of Precipitation, MM = Missing Value Source: NWS Daily Summary

Daily Weather History Graph

Daily Weather History Graph

Search for Another Location

Airport or City:

Trip Planner

Search our weather history database for the weather conditions in past years. The results will help you decide how hot, cold, wet, or windy it might be!

Date:

Astronomy

Dec. 09, 2012 Rise Set
Actual Time 7:07 AM EST 4:13 PM EST
Civil Twilight 6:35 AM EST 4:45 PM EST
Nautical Twilight 5:59 AM EST 5:21 PM EST
Astronomical Twilight 5:25 AM EST 5:55 PM EST
Moon 2:32 AM EST (12/9) 1:22 PM EST (12/9)
Length of Visible Light 10h 10m
Length of Day
9h 06m
Waning Crescent, 19% of the Moon is Illuminated
Dec 9
Waning Crescent
Dec 13
New
Dec 20
First Quarter
Dec 28
Full
Jan 4
Last Quarter

Hourly Weather History & Observations

Time (EST) Temp. Windchill Dew Point Humidity Pressure Visibility Wind Dir Wind Speed Gust Speed Precip Events Conditions
12:01 AM 41.0 °F 38.0 °F 39.2 °F 93% 29.94 in 1.2 mi SSW 4.6 mph - N/A   Overcast
12:07 AM 41.0 °F - 39.2 °F 93% 29.94 in 2.0 mi Calm Calm - N/A   Overcast
12:16 AM 41.0 °F - 39.2 °F 93% 29.95 in 6.0 mi Calm Calm - N/A   Overcast
12:42 AM 39.2 °F 35.0 °F 37.4 °F 93% 29.95 in 9.0 mi South 5.8 mph - N/A   Scattered Clouds
12:52 AM 39.9 °F 37.8 °F 39.0 °F 97% 30.00 in 9.0 mi South 3.5 mph - N/A   Partly Cloudy
1:52 AM 37.0 °F - 35.1 °F 93% 30.03 in 3.0 mi Calm Calm - N/A   Partly Cloudy
1:54 AM 37.4 °F - 35.6 °F 93% 29.99 in 1.5 mi Calm Calm - N/A   Partly Cloudy
1:56 AM 37.4 °F - 35.6 °F 93% 29.99 in 1.0 mi Calm Calm - N/A   Scattered Clouds
2:04 AM 37.4 °F - 35.6 °F 93% 29.99 in 1.8 mi Calm Calm - N/A   Partly Cloudy
2:06 AM 37.4 °F - 35.6 °F 93% 30.00 in 4.0 mi Calm Calm - N/A   Partly Cloudy
2:16 AM 35.6 °F 31.7 °F 35.6 °F 100% 30.00 in 3.0 mi South 4.6 mph - N/A   Scattered Clouds
2:19 AM 35.6 °F 32.8 °F 33.8 °F 93% 30.00 in 1.8 mi South 3.5 mph - N/A   Scattered Clouds
2:29 AM 37.4 °F 32.8 °F 35.6 °F 93% 30.01 in 3.0 mi South 5.8 mph - N/A   Scattered Clouds
2:52 AM 36.0 °F - 34.0 °F 93% 30.06 in 7.0 mi Calm Calm - N/A   Clear
3:52 AM 34.0 °F - 33.1 °F 96% 30.08 in 7.0 mi Calm Calm - N/A   Clear
4:52 AM 32.0 °F - 30.0 °F 92% 30.11 in 6.0 mi Calm Calm - N/A   Mostly Cloudy
5:03 AM 30.2 °F - 30.2 °F 100% 30.07 in 7.0 mi Calm Calm - N/A   Scattered Clouds
5:12 AM 30.2 °F - 30.2 °F 100% 30.08 in 4.0 mi Calm Calm - N/A   Mostly Cloudy
5:18 AM 30.2 °F - 30.2 °F 100% 30.08 in 1.8 mi Calm Calm - N/A   Scattered Clouds
5:23 AM 30.2 °F - 30.2 °F 100% 30.09 in 3.0 mi Calm Calm - N/A   Scattered Clouds
5:52 AM 32.0 °F 28.7 °F 30.0 °F 92% 30.15 in 8.0 mi Variable 3.5 mph - N/A   Clear
6:52 AM 32.0 °F - 30.9 °F 96% 30.19 in 7.0 mi Calm Calm - N/A   Clear
7:16 AM 33.8 °F - 30.2 °F 87% 30.17 in 2.5 mi Calm Calm - N/A   Clear
7:26 AM 33.8 °F - 32.0 °F 93% 30.17 in 4.0 mi Calm Calm - N/A   Clear
7:52 AM 34.0 °F - 32.0 °F 92% 30.23 in 7.0 mi Calm Calm - N/A   Clear
8:52 AM 37.0 °F 33.3 °F 30.9 °F 79% 30.26 in 10.0 mi NNW 4.6 mph - N/A   Clear
9:52 AM 37.0 °F 34.5 °F 30.9 °F 79% 30.27 in 10.0 mi Variable 3.5 mph - N/A   Clear
10:52 AM 37.9 °F 34.4 °F 30.9 °F 76% 30.27 in 10.0 mi North 4.6 mph - N/A   Partly Cloudy
11:52 AM 39.9 °F - 28.9 °F 65% 30.25 in 10.0 mi Calm Calm - N/A   Mostly Cloudy
1:52 PM 43.0 °F 41.3 °F 23.0 °F 45% 30.25 in 10.0 mi NE 3.5 mph - N/A   Clear
2:52 PM 43.0 °F 40.3 °F 21.9 °F 43% 30.26 in 10.0 mi Variable 4.6 mph - N/A   Clear
3:52 PM 37.0 °F - 27.0 °F 67% 30.27 in 10.0 mi Calm Calm - N/A   Clear
4:52 PM 32.0 °F - 27.0 °F 82% 30.29 in 10.0 mi Calm Calm - N/A   Clear
5:52 PM 32.0 °F - 28.0 °F 85% 30.31 in 10.0 mi Calm Calm - N/A   Mostly Cloudy
6:52 PM 32.0 °F - 28.0 °F 85% 30.30 in 10.0 mi Calm Calm - N/A   Overcast
7:52 PM 34.0 °F - 30.0 °F 85% 30.29 in 10.0 mi Calm Calm - N/A   Overcast
8:52 PM 37.0 °F - 28.0 °F 70% 30.25 in 10.0 mi Calm Calm - N/A   Overcast
9:52 PM 37.0 °F - 30.0 °F 76% 30.24 in 10.0 mi Calm Calm - 0.00 in Rain Light Rain
10:13 PM 35.6 °F - 30.2 °F 81% 30.18 in 10.0 mi Calm Calm - 0.00 in Rain Light Rain
10:52 PM 36.0 °F 32.1 °F 30.9 °F 82% 30.20 in 7.0 mi Variable 4.6 mph - 0.02 in Rain Light Freezing Rain
11:11 PM 35.6 °F - 30.2 °F 81% 30.15 in 7.0 mi Calm Calm - 0.03 in Rain Light Freezing Rain
11:19 PM 35.6 °F - 30.2 °F 81% 30.15 in 6.0 mi Calm Calm - 0.04 in Rain Light Freezing Rain
11:39 PM 35.6 °F - 32.0 °F 87% 30.12 in 6.0 mi Calm Calm - 0.07 in Rain Light Freezing Rain